This is the latest recevied weather packets stored in our database for station/object DH0DM-13. If no packets are shown the sender has not sent any weather packets the latest 10 day(s).
| Time | Temp. | Humidity | Pressure | Rain* | Wind** | Luminosity | Snow |
|---|---|---|---|---|---|---|---|
| 1787788868 | 11.67° C | 96% | 993.2 hPa | 0 mm | 0 m/s | - | - |
| 1787788267 | 12.22° C | 96% | 993.1 hPa | 0 mm | 0 m/s | - | - |
| 1787787666 | 12.22° C | 96% | 993.2 hPa | 0 mm | 0 m/s | - | - |
| 1787787065 | 11.67° C | 95% | 993.3 hPa | 0 mm | 0 m/s | - | - |
| 1787786464 | 12.22° C | 95% | 993.2 hPa | 0 mm | 0 m/s | - | - |
| 1787785863 | 12.22° C | 95% | 993.4 hPa | 0 mm | 0 m/s | - | - |
| 1787785262 | 12.22° C | 94% | 993.3 hPa | 0 mm | 0 m/s | - | - |
| 1787784661 | 12.22° C | 94% | 993.3 hPa | 0 mm | 0 m/s | - | - |
| 1787784060 | 12.22° C | 93% | 993.4 hPa | 0 mm | 0 m/s | - | - |
| 1787783459 | 12.22° C | 93% | 993.3 hPa | 0 mm | 0 m/s | - | - |
| 1787782859 | 12.78° C | 92% | 993.6 hPa | 0 mm | 0 m/s | - | - |
| 1787782258 | 12.78° C | 92% | 993.5 hPa | 0 mm | 0 m/s | - | - |
| 1787781657 | 12.78° C | 93% | 993.5 hPa | 4.06 mm | 0 m/s | - | - |
| 1787781056 | 12.78° C | 93% | 993.5 hPa | 4.06 mm | 0 m/s | - | - |
| 1787780455 | 12.78° C | 94% | 993.5 hPa | 4.06 mm | 0 m/s | - | - |
| 1787779854 | 12.78° C | 93% | 993.5 hPa | 4.06 mm | 0 m/s | - | - |
| 1787779253 | 12.78° C | 92% | 993.6 hPa | 4.06 mm | 0 m/s | - | - |
| 1787778652 | 13.33° C | 91% | 993.6 hPa | 4.06 mm | 0 m/s | - | - |
| 1787778051 | 13.33° C | 90% | 993.6 hPa | 4.06 mm | 0 m/s | - | - |
| 1787777451 | 13.89° C | 89% | 993.6 hPa | 4.06 mm | 0 m/s | - | - |
| 1787776850 | 14.44° C | 87% | 993.4 hPa | 4.06 mm | 0 m/s | - | - |
| 1787776249 | 14.44° C | 86% | 993.6 hPa | 4.06 mm | 0 m/s | - | - |
| 1787775648 | 15° C | 85% | 993.6 hPa | 4.06 mm | 0 m/s | - | - |
| 1787775046 | 15° C | 84% | 993.5 hPa | 4.06 mm | 1.79 m/s, 68° | - | - |
| 1787774445 | 15.56° C | 83% | 993.4 hPa | 4.06 mm | 4.02 m/s, 72° | - | - |
* Rain since midnight (hover to see other rain measurements)
** Current wind speed in m/s (hover to see current wind gust speed)